Find Starlink 30292

NORAD ID: 57844 Int'l Des: 2023-141 Owner: SPXS Country: US Constellation: starlink operational
LEOCIRCULAR

实时位置

正在加载3D地球...

关于 Starlink 30292

正在加载描述...

即将过境

Passes for default location (London). Set your location on the main map for personalized predictions.

高度历史

Loading altitude history...

两行轨道根数

1 57844U 23141E 26124.99217036 .00001368 00000-0 58309-4 0 9998
2 57844 53.1619 22.2217 0001026 77.0179 283.0936 15.30195155148954
Epoch: May 4, 2026 • Age: 17 hours

当前状态

高度 484.7 km
速度 7.62 km/s
星下点 -29.42°S, 113.77°E
发射日期 Sep 12, 2023
运行时间 2.6 years
类型 internet

技术详情

分类 Payload
质量 730.00 kg
干质量 700.00 kg
总质量 730.00 kg
长度 0.30 m
直径 4.10 m
跨度 29.00 m
形状 Box + pan
制造商 SPXS
平台类型 Starlink V2M
阶段状态 In Orbit
所有者/国家 SPXS/US

Most Searched